Regional Weather Roundup
Issued by NWS

Home | Current Version | Previous Version | Graphics & Text | Print | Product List | Glossary On
Versions: 1 2 3 4 5 6 7 8 9 10 11 12 13 14 15 16 17 18 19 20 21 22 23 24 25 26 27 28 29 30 31 32 33 34 35 36 37 38 39 40 41 42 43 44 45 46 47 48 49 50
000
ASUS43 KFSD 060702
RWRSD

WEATHER ROUNDUP FOR SOUTH DAKOTA
NATIONAL WEATHER SERVICE SIOUX FALLS SD
200 AM CDT WED MAY 06 2015

NOTE: "FAIR" INDICATES FEW OR NO CLOUDS BELOW 12,000 FEET WITH NO
SIGNIFICANT WEATHER AND/OR OBSTRUCTIONS TO VISIBILITY.


SDZ001>005-009-010-012>017-060800-
NORTHWEST AND NORTH CENTRAL SOUTH DAKOTA

CITY           SKY/WX    TMP DP  RH WIND       PRES   REMARKS
BUFFALO          N/A     58  52  80 SE20G26   29.70F
FAITH            N/A     57  54  89 SE14      29.82S
MOBRIDGE       LGT RAIN  59  57  93 SE8       29.84F
$$

SDZ012>016-024>037-041>051-057-063-072>074-060800-
SOUTHWEST AND SOUTH CENTRAL SOUTH DAKOTA

CITY           SKY/WX    TMP DP  RH WIND       PRES   REMARKS
RAPID CTY ARPT CLOUDY    55  51  86 SE7       29.80F
PIERRE         CLOUDY    58  57  97 SE9       29.83F FOG
CUSTER         LGT RAIN  48  46  93 VRB6      29.84F FOG
PHILIP         CLOUDY    58  55  90 SE6       29.81F
PINE RIDGE     CLOUDY    55  49  80 SE10      29.79F
WINNER         CLOUDY    60  53  77 SE9       29.85F
$$

SDZ004>011-016>023-039-040-060800-
NORTHEAST SOUTH DAKOTA

CITY           SKY/WX    TMP DP  RH WIND       PRES   REMARKS
ABERDEEN       MOCLDY    60  56  86 SE10      29.90F
WATERTOWN      CLOUDY    60  57  89 SE12G21   29.97S FOG
BROOKINGS      CLOUDY    59  57  94 SE22      29.99S
SISSETON         N/A     57  55  93 S20       29.97F
$$

SDZ017-020-022-023-036>040-048>070-060800-
SOUTHEAST SOUTH DAKOTA

CITY           SKY/WX    TMP DP  RH WIND       PRES   REMARKS
SIOUX FALLS    CLOUDY    62  59  90 E15G25    29.95F
HURON          CLOUDY    60  58  92 SE9       29.90F
MITCHELL       CLOUDY    63  60  90 SE14      29.91S
YANKTON        CLOUDY    64  57  77 SE7       29.91F
$$

ABBREVIATIONS USED IN REMARKS
   TC - TEMPERATURE IN CELSIUS
  WCI - WIND CHILL INDEX
   HX - HEAT INDEX
  VSB - VISIBILITY



USA.gov is the U.S. government's official web portal to all federal, state and local government web resources and services.